| time (UTC) | temp F | wind direction | speed MPH | gust MPH | rain 1hr in | rain 24hr in | rain mn in | humidity % | barometer mb |
| 20260906223336 | 82 | 20 | 5.0 | 7.0 | 0.00 | 0.00 | 0.00 | 37 | 1011.1 |
| 20260906222833 | 82 | 38 | 4.0 | 4.0 | 0.00 | 0.00 | 0.00 | 36 | 1011.5 |
| 20260906222332 | 82 | 16 | 5.0 | 7.0 | 0.00 | 0.00 | 0.00 | 36 | 1011.2 |
| 20260906221830 | 82 | 36 | 3.0 | 4.0 | 0.00 | 0.00 | 0.00 | 37 | 1011.2 |
| 20260906221330 | 82 | 30 | 2.0 | 3.0 | 0.00 | 0.00 | 0.00 | 36 | 1011.6 |
| 20260906220825 | 83 | 29 | 6.0 | 7.0 | 0.00 | 0.00 | 0.00 | 35 | 1011.7 |
| 20260906220321 | 83 | 33 | 5.0 | 7.0 | 0.00 | 0.00 | 0.00 | 35 | 1011.7 |
| 20260906215819 | 82 | 52 | 2.0 | 3.0 | 0.00 | 0.00 | 0.00 | 36 | 1012.0 |
| 20260906215314 | 82 | 44 | 4.0 | 6.0 | 0.00 | 0.00 | 0.00 | 35 | 1012.0 |
| 20260906214812 | 82 | 48 | 1.0 | 2.0 | 0.00 | 0.00 | 0.00 | 36 | 1011.9 |
| 20260906214307 | 82 | 10 | 6.0 | 7.0 | 0.00 | 0.00 | 0.00 | 33 | 1012.1 |
| 20260906213807 | 82 | 28 | 5.0 | 6.0 | 0.00 | 0.00 | 0.00 | 36 | 1012.0 |
| 20260906213307 | 83 | 25 | 4.0 | 4.0 | 0.00 | 0.00 | 0.00 | 35 | 1012.3 |
| 20260906212804 | 83 | 34 | 3.0 | 4.0 | 0.00 | 0.00 | 0.00 | 36 | 1012.4 |
| 20260906212300 | 83 | 18 | 4.0 | 4.0 | 0.00 | 0.00 | 0.00 | 37 | 1012.3 |
| 20260906211759 | 82 | 123 | 5.0 | 7.0 | 0.00 | 0.00 | 0.00 | 36 | 1012.1 |
| 20260906211254 | 82 | 23 | 5.0 | 6.0 | 0.00 | 0.00 | 0.00 | 39 | 1012.3 |
| 20260906210750 | 82 | 48 | 7.0 | 8.0 | 0.00 | 0.00 | 0.00 | 37 | 1012.5 |
| 20260906210244 | 82 | 77 | 6.0 | 7.0 | 0.00 | 0.00 | 0.00 | 37 | 1012.5 |
| 20260906205744 | 82 | 21 | 2.0 | 3.0 | 0.00 | 0.00 | 0.00 | 40 | 1012.6 |
| 20260906205241 | 82 | 101 | 2.0 | 2.0 | 0.00 | 0.00 | 0.00 | 41 | 1012.7 |
| 20260906204736 | 81 | 133 | 2.0 | 3.0 | 0.00 | 0.00 | 0.00 | 43 | 1012.7 |
| 20260906204236 | 81 | 31 | 6.0 | 7.0 | 0.00 | 0.00 | 0.00 | 41 | 1013.0 |
| 20260906203735 | 81 | 94 | 2.0 | 3.0 | 0.00 | 0.00 | 0.00 | 41 | 1013.2 |
| 20260906203230 | 81 | 37 | 3.0 | 3.0 | 0.00 | 0.00 | 0.00 | 44 | 1013.0 |
| 20260906202727 | 81 | 312 | 3.0 | 4.0 | 0.00 | 0.00 | 0.00 | 40 | 1013.2 |
| 20260906202226 | 81 | 36 | 1.0 | 1.0 | 0.00 | 0.00 | 0.00 | 43 | 1013.4 |
| 20260906201721 | 80 | 79 | 0.0 | 1.0 | 0.00 | 0.00 | 0.00 | 41 | 1013.4 |
| 20260906201221 | 79 | 38 | 4.0 | 4.0 | 0.00 | 0.00 | 0.00 | 45 | 1013.4 |
| 20260906200717 | 79 | 32 | 2.0 | 3.0 | 0.00 | 0.00 | 0.00 | 44 | 1013.4 |
| 20260906200213 | 79 | 31 | 3.0 | 4.0 | 0.00 | 0.00 | 0.00 | 41 | 1013.5 |
| 20260906195708 | 79 | 65 | 4.0 | 6.0 | 0.00 | 0.00 | 0.00 | 46 | 1013.8 |
| 20260906195204 | 79 | 276 | 2.0 | 2.0 | 0.00 | 0.00 | 0.00 | 43 | 1013.7 |
| 20260906194700 | 78 | 59 | 6.0 | 7.0 | 0.00 | 0.00 | 0.00 | 44 | 1013.8 |
| 20260906194155 | 78 | 129 | 6.0 | 9.0 | 0.00 | 0.00 | 0.00 | 44 | 1013.8 |
| 20260906193650 | 78 | 25 | 6.0 | 7.0 | 0.00 | 0.00 | 0.00 | 42 | 1014.0 |
| 20260906193145 | 78 | 48 | 2.0 | 2.0 | 0.00 | 0.00 | 0.00 | 45 | 1014.2 |
| 20260906192641 | 78 | 24 | 3.0 | 6.0 | 0.00 | 0.00 | 0.00 | 44 | 1014.1 |
| 20260906192140 | 78 | 66 | 2.0 | 2.0 | 0.00 | 0.00 | 0.00 | 46 | 1014.2 |
| 20260906191635 | 77 | 41 | 5.0 | 7.0 | 0.00 | 0.00 | 0.00 | 47 | 1014.5 |
| 20260906191134 | 77 | 43 | 3.0 | 3.0 | 0.00 | 0.00 | 0.00 | 45 | 1014.5 |
| 20260906190634 | 77 | 79 | 4.0 | 4.0 | 0.00 | 0.00 | 0.00 | 47 | 1014.6 |
| 20260906190129 | 77 | 99 | 3.0 | 4.0 | 0.00 | 0.00 | 0.00 | 48 | 1014.8 |
| 20260906185627 | 76 | 71 | 4.0 | 4.0 | 0.00 | 0.00 | 0.00 | 48 | 1014.9 |
| 20260906185127 | 77 | 84 | 4.0 | 7.0 | 0.00 | 0.00 | 0.00 | 48 | 1015.1 |
| 20260906184622 | 76 | 140 | 2.0 | 3.0 | 0.00 | 0.00 | 0.00 | 50 | 1015.1 |
| 20260906184118 | 76 | 60 | 2.0 | 3.0 | 0.00 | 0.00 | 0.00 | 51 | 1015.2 |
| 20260906183613 | 76 | 49 | 2.0 | 2.0 | 0.00 | 0.00 | 0.00 | 47 | 1015.2 |
| 20260906183109 | 75 | 53 | 5.0 | 6.0 | 0.00 | 0.00 | 0.00 | 48 | 1015.3 |
| 20260906182603 | 75 | 30 | 3.0 | 4.0 | 0.00 | 0.00 | 0.00 | 51 | 1015.4 |
| 20260906182100 | 75 | 111 | 2.0 | 2.0 | 0.00 | 0.00 | 0.00 | 53 | 1015.7 |
| 20260906181555 | 75 | 103 | 0.0 | 1.0 | 0.00 | 0.00 | 0.00 | 52 | 1015.6 |
| 20260906181051 | 75 | 30 | 2.0 | 3.0 | 0.00 | 0.00 | 0.00 | 52 | 1015.7 |
| 20260906180551 | 75 | 265 | 1.0 | 1.0 | 0.00 | 0.00 | 0.00 | 52 | 1015.9 |
| 20260906180050 | 75 | 47 | 2.0 | 3.0 | 0.00 | 0.00 | 0.00 | 50 | 1016.0 |
| 20260906175549 | 75 | 6 | 1.0 | 1.0 | 0.00 | 0.00 | 0.00 | 53 | 1016.1 |
| 20260906175044 | 75 | 54 | 2.0 | 3.0 | 0.00 | 0.00 | 0.00 | 51 | 1016.1 |
| 20260906174542 | 74 | 208 | 1.0 | 1.0 | 0.00 | 0.00 | 0.00 | 51 | 1016.1 |
| 20260906174038 | 73 | 25 | 2.0 | 2.0 | 0.00 | 0.00 | 0.00 | 53 | 1016.4 |
| 20260906173538 | 73 | 46 | 2.0 | 3.0 | 0.00 | 0.00 | 0.00 | 54 | 1016.2 |
| 20260906173034 | 74 | 96 | 5.0 | 6.0 | 0.00 | 0.00 | 0.00 | 54 | 1016.4 |
| 20260906172529 | 74 | 288 | 0.0 | 0.0 | 0.00 | 0.00 | 0.00 | 52 | 1016.5 |
| 20260906172024 | 74 | 158 | 0.0 | 0.0 | 0.00 | 0.00 | 0.00 | 55 | 1016.6 |
| 20260906171519 | 74 | 39 | 2.0 | 3.0 | 0.00 | 0.00 | 0.00 | 53 | 1016.8 |
| 20260906171015 | 73 | 167 | 2.0 | 2.0 | 0.00 | 0.00 | 0.00 | 55 | 1016.7 |
| 20260906170511 | 72 | 303 | 1.0 | 2.0 | 0.00 | 0.00 | 0.00 | 57 | 1016.6 |
| 20260906170009 | 72 | 81 | 3.0 | 3.0 | 0.00 | 0.00 | 0.00 | 56 | 1016.9 |
| 20260906165507 | 72 | 61 | 2.0 | 3.0 | 0.00 | 0.00 | 0.00 | 54 | 1016.9 |
| 20260906165001 | 72 | 42 | 0.0 | 1.0 | 0.00 | 0.00 | 0.00 | 58 | 1016.7 |
| 20260906164500 | 72 | 154 | 1.0 | 1.0 | 0.00 | 0.00 | 0.00 | 57 | 1016.7 |
| 20260906163957 | 72 | 174 | 0.0 | 0.0 | 0.00 | 0.00 | 0.00 | 55 | 1017.0 |
| 20260906163452 | 73 | 168 | 2.0 | 2.0 | 0.00 | 0.00 | 0.00 | 53 | 1017.0 |
| 20260906162950 | 72 | 182 | 1.0 | 1.0 | 0.00 | 0.00 | 0.00 | 56 | 1017.1 |
| 20260906162449 | 72 | 209 | 1.0 | 1.0 | 0.00 | 0.00 | 0.00 | 54 | 1017.1 |
| 20260906161944 | 72 | 179 | 0.0 | 0.0 | 0.00 | 0.00 | 0.00 | 54 | 1017.1 |
| 20260906161444 | 70 | 178 | 0.0 | 0.0 | 0.00 | 0.00 | 0.00 | 56 | 1017.1 |
| 20260906160943 | 70 | 88 | 1.0 | 2.0 | 0.00 | 0.00 | 0.00 | 58 | 1017.0 |
| 20260906160442 | 69 | 147 | 0.0 | 1.0 | 0.00 | 0.00 | 0.00 | 58 | 1017.1 |
| 20260906155941 | 69 | 110 | 0.0 | 1.0 | 0.00 | 0.00 | 0.00 | 59 | 1017.0 |
| 20260906155439 | 71 | 71 | 2.0 | 2.0 | 0.00 | 0.00 | 0.00 | 57 | 1017.1 |
| 20260906154936 | 69 | 158 | 0.0 | 0.0 | 0.00 | 0.00 | 0.00 | 57 | 1017.1 |
| 20260906154431 | 69 | 227 | 1.0 | 1.0 | 0.00 | 0.00 | 0.00 | 58 | 1017.3 |
| 20260906153930 | 69 | 125 | 0.0 | 1.0 | 0.00 | 0.00 | 0.00 | 59 | 1017.3 |
| 20260906153428 | 69 | 319 | 1.0 | 2.0 | 0.00 | 0.00 | 0.00 | 57 | 1017.1 |
| 20260906152924 | 68 | 230 | 1.0 | 1.0 | 0.00 | 0.00 | 0.00 | 61 | 1017.3 |
| 20260906152424 | 68 | 295 | 1.0 | 2.0 | 0.00 | 0.00 | 0.00 | 60 | 1017.1 |
| 20260906151923 | 68 | 49 | 2.0 | 2.0 | 0.00 | 0.00 | 0.00 | 58 | 1017.1 |
| 20260906151418 | 67 | 163 | 2.0 | 2.0 | 0.00 | 0.00 | 0.00 | 64 | 1017.4 |
| 20260906150915 | 68 | 43 | 2.0 | 3.0 | 0.00 | 0.00 | 0.00 | 63 | 1017.4 |
| 20260906150415 | 67 | 204 | 1.0 | 1.0 | 0.00 | 0.00 | 0.00 | 61 | 1017.4 |
| 20260906145909 | 67 | 273 | 2.0 | 3.0 | 0.00 | 0.00 | 0.00 | 61 | 1017.5 |
| 20260906145408 | 67 | 168 | 0.0 | 0.0 | 0.00 | 0.00 | 0.00 | 59 | 1017.6 |
| 20260906144902 | 66 | 206 | 0.0 | 1.0 | 0.00 | 0.00 | 0.00 | 61 | 1017.5 |
| 20260906144358 | 65 | 145 | 0.0 | 1.0 | 0.00 | 0.00 | 0.00 | 63 | 1017.8 |
| 20260906143853 | 65 | 147 | 0.0 | 0.0 | 0.00 | 0.00 | 0.00 | 62 | 1017.8 |
| 20260906143348 | 64 | 164 | 0.0 | 1.0 | 0.00 | 0.00 | 0.00 | 62 | 1017.8 |
| 20260906142844 | 64 | 243 | 0.0 | 0.0 | 0.00 | 0.00 | 0.00 | 63 | 1017.6 |
| 20260906142339 | 63 | 238 | 2.0 | 2.0 | 0.00 | 0.00 | 0.00 | 64 | 1017.7 |
| 20260906141838 | 63 | 182 | 1.0 | 1.0 | 0.00 | 0.00 | 0.00 | 65 | 1017.8 |
| 20260906141333 | 62 | 218 | 0.0 | 0.0 | 0.00 | 0.00 | 0.00 | 66 | 1017.8 |
| 20260906140833 | 62 | 179 | 0.0 | 0.0 | 0.00 | 0.00 | 0.00 | 67 | 1017.7 |
| 20260906140327 | 61 | 169 | 0.0 | 0.0 | 0.00 | 0.00 | 0.00 | 69 | 1017.8 |
| 20260906135824 | 60 | 177 | 0.0 | 0.0 | 0.00 | 0.00 | 0.00 | 69 | 1017.6 |
| 20260906135320 | 59 | 185 | 0.0 | 0.0 | 0.00 | 0.00 | 0.00 | 71 | 1017.6 |
| 20260906134815 | 59 | 223 | 0.0 | 1.0 | 0.00 | 0.00 | 0.00 | 73 | 1017.5 |
| 20260906134310 | 58 | 222 | 1.0 | 2.0 | 0.00 | 0.00 | 0.00 | 73 | 1017.3 |
| 20260906133806 | 57 | 207 | 0.0 | 0.0 | 0.00 | 0.00 | 0.00 | 75 | 1017.7 |
| 20260906133301 | 56 | 220 | 1.0 | 2.0 | 0.00 | 0.00 | 0.00 | 75 | 1017.6 |
| 20260906132756 | 55 | 277 | 1.0 | 1.0 | 0.00 | 0.00 | 0.00 | 77 | 1017.5 |
| 20260906132252 | 55 | 261 | 0.0 | 1.0 | 0.00 | 0.00 | 0.00 | 78 | 1017.7 |
| 20260906131747 | 55 | 221 | 0.0 | 0.0 | 0.00 | 0.00 | 0.00 | 78 | 1017.6 |
| 20260906131242 | 55 | 286 | 1.0 | 1.0 | 0.00 | 0.00 | 0.00 | 79 | 1017.6 |
| 20260906130738 | 55 | 199 | 0.0 | 0.0 | 0.00 | 0.00 | 0.00 | 78 | 1017.5 |
| 20260906130238 | 54 | 203 | 0.0 | 0.0 | 0.00 | 0.00 | 0.00 | 79 | 1017.5 |
| 20260906125736 | 54 | 210 | 0.0 | 0.0 | 0.00 | 0.00 | 0.00 | 79 | 1017.5 |
| 20260906125235 | 54 | 201 | 0.0 | 0.0 | 0.00 | 0.00 | 0.00 | 79 | 1017.5 |
| 20260906124729 | 54 | 191 | 0.0 | 0.0 | 0.00 | 0.00 | 0.00 | 77 | 1017.6 |
| 20260906124225 | 55 | 188 | 0.0 | 0.0 | 0.00 | 0.00 | 0.00 | 75 | 1017.7 |
| 20260906123724 | 56 | 178 | 0.0 | 0.0 | 0.00 | 0.00 | 0.00 | 75 | 1017.6 |
| 20260906123220 | 56 | 254 | 0.0 | 0.0 | 0.00 | 0.00 | 0.00 | 75 | 1017.4 |
| 20260906122719 | 56 | 323 | 1.0 | 2.0 | 0.00 | 0.00 | 0.00 | 75 | 1017.5 |
| 20260906122214 | 55 | 202 | 0.0 | 0.0 | 0.00 | 0.00 | 0.00 | 76 | 1017.5 |
| 20260906121710 | 56 | 193 | 0.0 | 0.0 | 0.00 | 0.00 | 0.00 | 75 | 1017.7 |
| 20260906121207 | 56 | 296 | 1.0 | 1.0 | 0.00 | 0.00 | 0.00 | 75 | 1017.7 |
| 20260906120702 | 56 | 251 | 0.0 | 0.0 | 0.00 | 0.00 | 0.00 | 76 | 1017.6 |
| 20260906120159 | 56 | 348 | 1.0 | 1.0 | 0.00 | 0.00 | 0.00 | 76 | 1017.7 |
| 20260906115653 | 56 | 169 | 0.0 | 0.0 | 0.00 | 0.00 | 0.00 | 77 | 1017.6 |
| 20260906115149 | 55 | 243 | 0.0 | 0.0 | 0.00 | 0.00 | 0.00 | 78 | 1017.7 |
| 20260906114648 | 55 | 203 | 0.0 | 0.0 | 0.00 | 0.00 | 0.00 | 78 | 1017.6 |
| 20260906114143 | 56 | 192 | 0.0 | 0.0 | 0.00 | 0.00 | 0.00 | 77 | 1017.4 |
| 20260906113637 | 56 | 317 | 0.0 | 0.0 | 0.00 | 0.00 | 0.00 | 78 | 1017.4 |
| 20260906113132 | 56 | 269 | 0.0 | 0.0 | 0.00 | 0.00 | 0.00 | 76 | 1017.4 |
| 20260906112631 | 56 | 190 | 0.0 | 0.0 | 0.00 | 0.00 | 0.00 | 77 | 1017.7 |
| 20260906112129 | 56 | 198 | 0.0 | 0.0 | 0.00 | 0.00 | 0.00 | 76 | 1017.6 |
| 20260906111628 | 57 | 176 | 0.0 | 0.0 | 0.00 | 0.00 | 0.00 | 75 | 1017.4 |
| 20260906111123 | 57 | 210 | 0.0 | 0.0 | 0.00 | 0.00 | 0.00 | 75 | 1017.5 |
| 20260906110618 | 57 | 218 | 2.0 | 2.0 | 0.00 | 0.00 | 0.00 | 75 | 1017.5 |
| 20260906110118 | 57 | 201 | 0.0 | 0.0 | 0.00 | 0.00 | 0.00 | 74 | 1017.4 |
| 20260906105612 | 58 | 212 | 0.0 | 0.0 | 0.00 | 0.00 | 0.00 | 74 | 1017.4 |
| 20260906105108 | 58 | 264 | 0.0 | 0.0 | 0.00 | 0.00 | 0.00 | 73 | 1017.4 |
| 20260906104607 | 59 | 212 | 0.0 | 0.0 | 0.00 | 0.00 | 0.00 | 71 | 1017.5 |
| 20260906104101 | 59 | 256 | 0.0 | 0.0 | 0.00 | 0.00 | 0.00 | 71 | 1017.6 |
| 20260906103600 | 59 | 311 | 2.0 | 2.0 | 0.00 | 0.00 | 0.00 | 69 | 1017.3 |
| 20260906103055 | 59 | 216 | 1.0 | 2.0 | 0.00 | 0.00 | 0.00 | 69 | 1017.5 |
| 20260906102555 | 60 | 183 | 0.0 | 0.0 | 0.00 | 0.00 | 0.00 | 69 | 1017.6 |
| 20260906102051 | 60 | 146 | 0.0 | 0.0 | 0.00 | 0.00 | 0.00 | 67 | 1017.3 |
| 20260906101551 | 61 | 300 | 1.0 | 1.0 | 0.00 | 0.00 | 0.00 | 67 | 1017.3 |
| 20260906101045 | 60 | 66 | 0.0 | 0.0 | 0.00 | 0.00 | 0.00 | 67 | 1017.3 |
| 20260906100541 | 61 | 172 | 0.0 | 0.0 | 0.00 | 0.00 | 0.00 | 66 | 1017.6 |
| 20260906100042 | 61 | 248 | 1.0 | 1.0 | 0.00 | 0.00 | 0.00 | 66 | 1017.4 |
| 20260906095536 | 61 | 166 | 0.0 | 0.0 | 0.00 | 0.00 | 0.00 | 65 | 1016.9 |
| 20260906095032 | 62 | 130 | 1.0 | 1.0 | 0.00 | 0.00 | 0.00 | 65 | 1017.0 |
| 20260906094530 | 62 | 163 | 0.0 | 0.0 | 0.00 | 0.00 | 0.00 | 64 | 1017.1 |
| 20260906094026 | 62 | 297 | 0.0 | 0.0 | 0.00 | 0.00 | 0.00 | 63 | 1016.8 |
| 20260906093522 | 63 | 172 | 0.0 | 0.0 | 0.00 | 0.00 | 0.00 | 62 | 1017.1 |
| 20260906093017 | 63 | 286 | 1.0 | 1.0 | 0.00 | 0.00 | 0.00 | 61 | 1016.9 |
| 20260906092516 | 64 | 303 | 1.0 | 2.0 | 0.00 | 0.00 | 0.00 | 60 | 1016.8 |
| 20260906092012 | 64 | 26 | 2.0 | 2.0 | 0.00 | 0.00 | 0.00 | 59 | 1016.6 |
| 20260906091508 | 65 | 37 | 4.0 | 4.0 | 0.00 | 0.00 | 0.00 | 59 | 1016.7 |
| 20260906091004 | 65 | 14 | 4.0 | 6.0 | 0.00 | 0.00 | 0.00 | 58 | 1016.8 |
| 20260906090459 | 65 | 312 | 1.0 | 1.0 | 0.00 | 0.00 | 0.00 | 59 | 1016.8 |
| 20260906085959 | 64 | 237 | 0.0 | 1.0 | 0.00 | 0.00 | 0.00 | 58 | 1016.8 |
| 20260906085458 | 64 | 3 | 0.0 | 1.0 | 0.00 | 0.00 | 0.00 | 60 | 1016.9 |
| 20260906084957 | 64 | 196 | 0.0 | 1.0 | 0.00 | 0.00 | 0.00 | 57 | 1017.5 |
| 20260906084452 | 64 | 239 | 2.0 | 2.0 | 0.00 | 0.00 | 0.00 | 56 | 1017.3 |
| 20260906083951 | 64 | 229 | 0.0 | 1.0 | 0.00 | 0.00 | 0.00 | 58 | 1017.3 |
| 20260906083447 | 62 | 309 | 4.0 | 4.0 | 0.00 | 0.00 | 0.00 | 59 | 1017.3 |
| 20260906082946 | 63 | 210 | 0.0 | 0.0 | 0.00 | 0.00 | 0.00 | 59 | 1016.7 |
| 20260906082441 | 63 | 0 | 2.0 | 2.0 | 0.00 | 0.00 | 0.00 | 58 | 1016.6 |
| 20260906081937 | 63 | 2 | 2.0 | 2.0 | 0.00 | 0.00 | 0.00 | 58 | 1016.7 |
| 20260906081432 | 63 | 7 | 2.0 | 2.0 | 0.00 | 0.00 | 0.00 | 57 | 1016.9 |
| 20260906080928 | 63 | 217 | 0.0 | 0.0 | 0.00 | 0.00 | 0.00 | 57 | 1016.9 |
| 20260906080425 | 63 | 232 | 1.0 | 2.0 | 0.00 | 0.00 | 0.00 | 57 | 1016.8 |
| 20260906075924 | 64 | 24 | 0.0 | 2.0 | 0.00 | 0.00 | 0.00 | 55 | 1016.9 |
| 20260906075420 | 64 | 169 | 4.0 | 4.0 | 0.00 | 0.00 | 0.00 | 54 | 1017.1 |
| 20260906074914 | 63 | 242 | 1.0 | 1.0 | 0.00 | 0.00 | 0.00 | 55 | 1016.8 |
| 20260906074408 | 64 | 89 | 1.0 | 1.0 | 0.00 | 0.00 | 0.00 | 55 | 1016.7 |
| 20260906073907 | 64 | 340 | 5.0 | 7.0 | 0.00 | 0.00 | 0.00 | 54 | 1016.4 |
| 20260906073402 | 63 | 328 | 7.0 | 8.0 | 0.00 | 0.00 | 0.00 | 55 | 1016.8 |
| 20260906072859 | 63 | 309 | 3.0 | 4.0 | 0.00 | 0.00 | 0.00 | 55 | 1016.8 |
| 20260906072354 | 62 | 261 | 1.0 | 1.0 | 0.00 | 0.00 | 0.00 | 56 | 1016.7 |
| 20260906071850 | 62 | 145 | 1.0 | 1.0 | 0.00 | 0.00 | 0.00 | 57 | 1016.9 |
| 20260906071345 | 63 | 147 | 3.0 | 3.0 | 0.00 | 0.00 | 0.00 | 56 | 1016.8 |
| 20260906070841 | 63 | 143 | 2.0 | 3.0 | 0.00 | 0.00 | 0.00 | 56 | 1016.5 |
| 20260906070337 | 63 | 164 | 0.0 | 0.0 | 0.00 | 0.00 | 0.00 | 54 | 1016.7 |
| 20260906065832 | 64 | 218 | 1.0 | 1.0 | 0.00 | 0.00 | 0.00 | 54 | 1016.5 |
| 20260906065326 | 64 | 261 | 0.0 | 1.0 | 0.00 | 0.00 | 0.00 | 53 | 1016.6 |
| 20260906064822 | 64 | 277 | 4.0 | 4.0 | 0.00 | 0.00 | 0.00 | 52 | 1016.4 |
| 20260906064319 | 64 | 299 | 2.0 | 3.0 | 0.00 | 0.00 | 0.00 | 52 | 1016.5 |
| 20260906063818 | 65 | 307 | 5.0 | 7.0 | 0.00 | 0.00 | 0.00 | 53 | 1016.2 |
| 20260906063314 | 65 | 9 | 9.0 | 10.0 | 0.00 | 0.00 | 0.00 | 52 | 1016.5 |
| 20260906062809 | 65 | 338 | 6.0 | 8.0 | 0.00 | 0.00 | 0.00 | 52 | 1016.5 |
| 20260906062308 | 65 | 322 | 5.0 | 6.0 | 0.00 | 0.00 | 0.00 | 52 | 1016.4 |
| 20260906061804 | 65 | 306 | 6.0 | 7.0 | 0.00 | 0.00 | 0.00 | 51 | 1016.4 |
| 20260906061300 | 65 | 332 | 6.0 | 7.0 | 0.00 | 0.00 | 0.00 | 52 | 1016.1 |
| 20260906060755 | 65 | 310 | 9.0 | 10.0 | 0.00 | 0.00 | 0.00 | 51 | 1016.5 |
| 20260906060252 | 65 | 314 | 8.0 | 10.0 | 0.00 | 0.00 | 0.00 | 51 | 1016.1 |
| 20260906055748 | 65 | 330 | 9.0 | 11.0 | 0.00 | 0.00 | 0.00 | 51 | 1016.0 |
| 20260906055243 | 66 | 338 | 9.0 | 11.0 | 0.00 | 0.00 | 0.00 | 50 | 1016.0 |
| 20260906054738 | 66 | 337 | 9.0 | 10.0 | 0.00 | 0.00 | 0.00 | 50 | 1016.0 |
| 20260906054233 | 66 | 1 | 9.0 | 11.0 | 0.00 | 0.00 | 0.00 | 50 | 1016.4 |
| 20260906053730 | 66 | 309 | 9.0 | 10.0 | 0.00 | 0.00 | 0.00 | 49 | 1016.1 |
| 20260906053226 | 66 | 290 | 4.0 | 6.0 | 0.00 | 0.00 | 0.00 | 49 | 1016.2 |
| 20260906052720 | 66 | 350 | 8.0 | 9.0 | 0.00 | 0.00 | 0.00 | 48 | 1016.0 |
| 20260906052217 | 66 | 320 | 8.0 | 9.0 | 0.00 | 0.00 | 0.00 | 49 | 1015.9 |
| 20260906051714 | 66 | 343 | 7.0 | 10.0 | 0.00 | 0.00 | 0.00 | 48 | 1016.2 |
| 20260906051213 | 66 | 332 | 8.0 | 9.0 | 0.00 | 0.00 | 0.00 | 48 | 1016.4 |
| 20260906050708 | 67 | 339 | 6.0 | 7.0 | 0.00 | 0.00 | 0.00 | 47 | 1016.4 |
| 20260906050203 | 67 | 353 | 9.0 | 10.0 | 0.00 | 0.00 | 0.00 | 47 | 1016.4 |
| 20260906045701 | 67 | 344 | 7.0 | 8.0 | 0.00 | 0.00 | 0.00 | 47 | 1016.4 |
| 20260906045157 | 67 | 345 | 11.0 | 13.0 | 0.00 | 0.00 | 0.00 | 46 | 1016.2 |
| 20260906044653 | 67 | 331 | 6.0 | 9.0 | 0.00 | 0.00 | 0.00 | 46 | 1016.4 |
| 20260906044148 | 68 | 333 | 7.0 | 9.0 | 0.00 | 0.00 | 0.00 | 45 | 1016.4 |
| 20260906043644 | 68 | 331 | 8.0 | 11.0 | 0.00 | 0.00 | 0.00 | 45 | 1016.6 |
| 20260906043139 | 68 | 310 | 6.0 | 9.0 | 0.00 | 0.00 | 0.00 | 46 | 1016.2 |
| 20260906042639 | 68 | 318 | 3.0 | 3.0 | 0.00 | 0.00 | 0.00 | 45 | 1016.4 |
| 20260906042133 | 67 | 352 | 11.0 | 13.0 | 0.00 | 0.00 | 0.00 | 45 | 1016.4 |
| 20260906041630 | 67 | 6 | 10.0 | 11.0 | 0.00 | 0.00 | 0.00 | 46 | 1016.4 |
| 20260906041130 | 67 | 323 | 6.0 | 7.0 | 0.00 | 0.00 | 0.00 | 46 | 1016.4 |
| 20260906040625 | 67 | 352 | 6.0 | 8.0 | 0.00 | 0.00 | 0.00 | 46 | 1016.2 |
| 20260906040120 | 67 | 319 | 5.0 | 6.0 | 0.00 | 0.00 | 0.00 | 46 | 1016.2 |
| 20260906035615 | 68 | 344 | 9.0 | 10.0 | 0.00 | 0.00 | 0.00 | 45 | 1016.0 |
| 20260906035112 | 68 | 357 | 9.0 | 11.0 | 0.00 | 0.00 | 0.00 | 45 | 1016.1 |
| 20260906034611 | 68 | 324 | 7.0 | 8.0 | 0.00 | 0.00 | 0.00 | 45 | 1016.0 |
| 20260906034106 | 68 | 356 | 7.0 | 8.0 | 0.00 | 0.00 | 0.00 | 45 | 1016.2 |
| 20260906033601 | 68 | 314 | 6.0 | 7.0 | 0.00 | 0.00 | 0.00 | 45 | 1016.4 |
| 20260906033057 | 68 | 346 | 8.0 | 9.0 | 0.00 | 0.00 | 0.00 | 44 | 1016.4 |
| 20260906032554 | 68 | 322 | 6.0 | 7.0 | 0.00 | 0.00 | 0.00 | 44 | 1016.2 |
| 20260906032053 | 68 | 321 | 6.0 | 7.0 | 0.00 | 0.00 | 0.00 | 44 | 1016.4 |
| 20260906031549 | 69 | 322 | 6.0 | 9.0 | 0.00 | 0.00 | 0.00 | 44 | 1016.0 |
| 20260906031044 | 69 | 353 | 8.0 | 11.0 | 0.00 | 0.00 | 0.00 | 43 | 1016.1 |
| 20260906030543 | 69 | 329 | 6.0 | 8.0 | 0.00 | 0.00 | 0.00 | 43 | 1016.1 |
| 20260906030044 | 69 | 0 | 7.0 | 10.0 | 0.00 | 0.00 | 0.00 | 42 | 1015.9 |
| 20260906025544 | 69 | 358 | 8.0 | 9.0 | 0.00 | 0.00 | 0.00 | 42 | 1015.9 |
| 20260906025042 | 69 | 358 | 7.0 | 9.0 | 0.00 | 0.00 | 0.00 | 42 | 1016.0 |
| 20260906024537 | 69 | 343 | 7.0 | 9.0 | 0.00 | 0.00 | 0.00 | 42 | 1015.8 |
| 20260906024037 | 70 | 335 | 4.0 | 6.0 | 0.00 | 0.00 | 0.00 | 42 | 1015.9 |
| 20260906023533 | 70 | 325 | 7.0 | 9.0 | 0.00 | 0.00 | 0.00 | 41 | 1015.7 |
| 20260906023028 | 70 | 317 | 8.0 | 11.0 | 0.00 | 0.00 | 0.00 | 41 | 1015.4 |
| 20260906022523 | 70 | 321 | 5.0 | 6.0 | 0.00 | 0.00 | 0.00 | 41 | 1015.7 |
| 20260906022019 | 70 | 346 | 8.0 | 9.0 | 0.00 | 0.00 | 0.00 | 41 | 1015.7 |
| 20260906021514 | 71 | 13 | 7.0 | 9.0 | 0.00 | 0.00 | 0.00 | 40 | 1015.4 |
| 20260906021008 | 71 | 7 | 8.0 | 9.0 | 0.00 | 0.00 | 0.00 | 40 | 1015.7 |
| 20260906020507 | 71 | 300 | 6.0 | 8.0 | 0.00 | 0.00 | 0.00 | 41 | 1015.4 |
| 20260906020008 | 71 | 354 | 9.0 | 10.0 | 0.00 | 0.00 | 0.00 | 40 | 1015.6 |
| 20260906015506 | 71 | 354 | 6.0 | 8.0 | 0.00 | 0.00 | 0.00 | 40 | 1015.6 |
| 20260906015001 | 72 | 343 | 7.0 | 17.0 | 0.00 | 0.00 | 0.00 | 40 | 1015.6 |
| 20260906014501 | 72 | 350 | 7.0 | 8.0 | 0.00 | 0.00 | 0.00 | 40 | 1015.7 |
| 20260906013957 | 72 | 0 | 8.0 | 10.0 | 0.00 | 0.00 | 0.00 | 40 | 1015.6 |
| 20260906013452 | 72 | 341 | 9.0 | 9.0 | 0.00 | 0.00 | 0.00 | 40 | 1015.6 |
| 20260906012948 | 72 | 327 | 4.0 | 6.0 | 0.00 | 0.00 | 0.00 | 43 | 1015.6 |
| 20260906012448 | 72 | 341 | 6.0 | 6.0 | 0.00 | 0.00 | 0.00 | 42 | 1015.8 |
| 20260906011948 | 72 | 353 | 6.0 | 8.0 | 0.00 | 0.00 | 0.00 | 42 | 1015.6 |
| 20260906011443 | 72 | 322 | 6.0 | 7.0 | 0.00 | 0.00 | 0.00 | 43 | 1015.6 |
| 20260906010938 | 72 | 336 | 5.0 | 6.0 | 0.00 | 0.00 | 0.00 | 43 | 1015.6 |
| 20260906010434 | 73 | 0 | 5.0 | 6.0 | 0.00 | 0.00 | 0.00 | 44 | 1015.7 |
| 20260906005930 | 73 | 320 | 4.0 | 4.0 | 0.00 | 0.00 | 0.00 | 44 | 1015.7 |
| 20260906005430 | 73 | 338 | 5.0 | 7.0 | 0.00 | 0.00 | 0.00 | 42 | 1015.4 |
| 20260906004928 | 74 | 327 | 6.0 | 9.0 | 0.00 | 0.00 | 0.00 | 42 | 1015.4 |
| 20260906004422 | 74 | 311 | 6.0 | 8.0 | 0.00 | 0.00 | 0.00 | 41 | 1015.4 |
| 20260906003918 | 74 | 318 | 9.0 | 10.0 | 0.00 | 0.00 | 0.00 | 40 | 1015.6 |
| 20260906003413 | 74 | 339 | 6.0 | 7.0 | 0.00 | 0.00 | 0.00 | 41 | 1015.4 |
| 20260906002909 | 75 | 12 | 6.0 | 8.0 | 0.00 | 0.00 | 0.00 | 41 | 1015.6 |
| 20260906002408 | 75 | 357 | 7.0 | 8.0 | 0.00 | 0.00 | 0.00 | 40 | 1015.4 |
| 20260906001904 | 75 | 326 | 8.0 | 11.0 | 0.00 | 0.00 | 0.00 | 37 | 1015.6 |
| 20260906001359 | 76 | 325 | 7.0 | 8.0 | 0.00 | 0.00 | 0.00 | 39 | 1015.4 |
| 20260906000854 | 76 | 339 | 7.0 | 8.0 | 0.00 | 0.00 | 0.00 | 36 | 1015.4 |
| 20260906000355 | 76 | 341 | 7.0 | 8.0 | 0.00 | 0.00 | 0.00 | 38 | 1015.4 |
| 20260905235848 | 77 | 333 | 11.0 | 13.0 | 0.00 | 0.00 | 0.00 | 36 | 1015.7 |
| 20260905235343 | 77 | 347 | 6.0 | 8.0 | 0.00 | 0.00 | 0.00 | 39 | 1015.6 |
| 20260905234839 | 78 | 339 | 7.0 | 9.0 | 0.00 | 0.00 | 0.00 | 37 | 1015.6 |
| 20260905234334 | 78 | 351 | 11.0 | 15.0 | 0.00 | 0.00 | 0.00 | 35 | 1015.4 |
| 20260905233829 | 78 | 2 | 7.0 | 10.0 | 0.00 | 0.00 | 0.00 | 38 | 1015.6 |
| 20260905233324 | 78 | 336 | 8.0 | 9.0 | 0.00 | 0.00 | 0.00 | 38 | 1015.6 |
| 20260905232823 | 78 | 346 | 7.0 | 8.0 | 0.00 | 0.00 | 0.00 | 37 | 1015.6 |
| 20260905232320 | 79 | 315 | 9.0 | 9.0 | 0.00 | 0.00 | 0.00 | 36 | 1015.6 |
| 20260905231815 | 79 | 335 | 9.0 | 11.0 | 0.00 | 0.00 | 0.00 | 35 | 1015.6 |
| 20260905231310 | 79 | 338 | 6.0 | 8.0 | 0.00 | 0.00 | 0.00 | 38 | 1015.6 |
| 20260905230806 | 79 | 318 | 6.0 | 7.0 | 0.00 | 0.00 | 0.00 | 37 | 1015.4 |
| 20260905230304 | 80 | 326 | 8.0 | 9.0 | 0.00 | 0.00 | 0.00 | 36 | 1015.6 |
| 20260905225804 | 80 | 307 | 7.0 | 9.0 | 0.00 | 0.00 | 0.00 | 36 | 1015.7 |
| 20260905225258 | 80 | 327 | 5.0 | 7.0 | 0.00 | 0.00 | 0.00 | 38 | 1015.7 |
| 20260905224758 | 80 | 298 | 6.0 | 8.0 | 0.00 | 0.00 | 0.00 | 37 | 1015.6 |
| 20260905224254 | 80 | 331 | 5.0 | 6.0 | 0.00 | 0.00 | 0.00 | 35 | 1015.7 |
| 20260905223749 | 81 | 342 | 4.0 | 4.0 | 0.00 | 0.00 | 0.00 | 33 | 1015.4 |